TimeEDT,TemperatureF,Dew PointF,Humidity,Sea Level PressureIn,VisibilityMPH,Wind Direction,Wind SpeedMPH,Gust SpeedMPH,PrecipitationIn,Events,Conditions,WindDirDegrees,DateUTC
12:52 AM,61.0,37.9,42,30.06,10.0,NNW,20.7,31.1,N/A,,Mostly Cloudy,340,2008-04-02 04:52:00
1:52 AM,54.0,32.0,43,30.12,10.0,NNW,16.1,33.4,N/A,,Scattered Clouds,330,2008-04-02 05:52:00
2:52 AM,51.1,28.9,43,30.16,10.0,NNW,9.2,21.9,N/A,,Partly Cloudy,330,2008-04-02 06:52:00
3:52 AM,50.0,28.0,43,30.18,10.0,NW,18.4,26.5,N/A,,Partly Cloudy,320,2008-04-02 07:52:00
4:52 AM,48.0,30.0,50,30.22,10.0,NNW,19.6,25.3,N/A,,Partly Cloudy,330,2008-04-02 08:52:00
5:52 AM,46.0,26.1,46,30.26,10.0,NW,21.9,29.9,N/A,,Partly Cloudy,320,2008-04-02 09:52:00
6:52 AM,45.0,24.1,44,30.30,10.0,NNW,24.2,31.1,N/A,,Mostly Cloudy,340,2008-04-02 10:52:00
7:52 AM,44.1,24.1,45,30.35,10.0,NNW,18.4,26.5,N/A,,Mostly Cloudy,330,2008-04-02 11:52:00
8:52 AM,45.0,25.0,46,30.37,10.0,NNW,18.4,24.2,N/A,,Mostly Cloudy,340,2008-04-02 12:52:00
9:52 AM,46.0,24.1,42,30.38,10.0,NNW,21.9,27.6,N/A,,Mostly Cloudy,330,2008-04-02 13:52:00
11:52 AM,52.0,25.0,35,30.40,10.0,NW,17.3,23.0,N/A,,Scattered Clouds,320,2008-04-02 15:52:00
12:52 PM,53.1,24.1,32,30.39,10.0,NNW,15.0,24.2,N/A,,Mostly Cloudy,340,2008-04-02 16:52:00
1:52 PM,55.0,26.1,33,30.38,10.0,NNW,13.8,25.3,N/A,,Scattered Clouds,340,2008-04-02 17:52:00
2:52 PM,55.9,24.1,29,30.39,10.0,NW,10.4,18.4,N/A,,Scattered Clouds,320,2008-04-02 18:52:00
3:52 PM,57.0,21.9,26,30.37,10.0,North,10.4,20.7,N/A,,Scattered Clouds,360,2008-04-02 19:52:00
4:52 PM,57.0,21.0,25,30.36,10.0,North,17.3,21.9,N/A,,Scattered Clouds,350,2008-04-02 20:52:00
5:52 PM,57.0,19.9,24,30.38,10.0,NNW,12.7,-,N/A,,Scattered Clouds,330,2008-04-02 21:52:00
6:52 PM,54.0,18.0,24,30.39,10.0,North,9.2,-,N/A,,Scattered Clouds,360,2008-04-02 22:52:00
7:52 PM,51.1,19.0,28,30.41,10.0,North,9.2,-,N/A,,Scattered Clouds,360,2008-04-02 23:52:00
8:52 PM,50.0,21.9,33,30.44,10.0,NNE,6.9,-,N/A,,Partly Cloudy,30,2008-04-03 00:52:00
9:52 PM,48.9,21.0,33,30.47,10.0,NE,8.1,-,N/A,,Clear,40,2008-04-03 01:52:00
10:52 PM,48.0,24.1,39,30.48,10.0,NE,3.5,-,N/A,,Clear,50,2008-04-03 02:52:00
11:52 PM,48.2,17.6,30,30.48,10.0,Calm,Calm,-,N/A,,Clear,0,2008-04-03 03:52:00